SL-12 DEB, 41681

Orbit data source: Space-Track

SL-12 DEB, 41681 is space debris in HEO originally from a launch on Fri, 26 Oct 2007 UTC launched from the Tyuratam Missile And Space Complex (TTMTR). Debris objects in space refer to the collection of defunct objects orbiting the Earth. Examples of debris include non-operational satellites, rocket bodies, and fragments generated from explosions, collisions, or faulty payload assembly.

Loading next visibility...
Identifier
41681, 2007-052N
Orbit
HEO
Country
Flag of CISCIS
Related business
Manufacturer
RKKE
Mission
Spacecraft
Bus & Motor
Unknown
Mass
Unknown
Launch date (UTC)
2007-10-26 (18 years ago)
Launch vehicle
Unknown
Launch site
Tyuratam Missile And Space Complex (TTMTR)
Object type
Payload
Rocket body
Debris
Shape & HBR
Unknown shape, 0.2 m
Radar Cross Section
Medium (>0.1 m² and <1 m²)

Expand to show TLE details & history
Last TLE update: 1 week ago

TLE from 1 week ago
0 SL-12 DEB
1 41681U 07052N   25283.33698474  .00000544  00000-0  63320-3 0  9998
2 41681  65.0610 278.6553 5676016 210.3225  99.0465  4.38970147177979
Epoch: 2025-10-10T08:05Z
TLE epoch observation values (Epoch: 2025-10-10T08:05:15.481Z)
Latitude
0.00004°
Longitude
138.14807°
Altitude
14,569.05 km
Speed
3.573 km/s
True Right ascension
18h 34m 35s
True Declination
0° 00' 00"
Sunlit
Object was in daylight at epoch
Visualization orbit readout
Latitude
Unknown
Longitude
Unknown
Altitude
Unknown
Speed
Unknown
Apparent Right ascension
Unknown
Apparent Declination
Unknown
Sunlit
N/A
Visualization observer readout
Local Sidereal Time
16:22:51
Azimuth
Unknown
Elevation
Unknown
Doppler factor
Unknown
Orbital elements
Apogee altitude
18,319.132 km
Perigee altitude
434.219 km
Semi-major axis
15,754.812 km
Eccentricity
0.5676
Inclination
65.061°
RAAN
278.6553°
Arg. of periapsis
210.3225°
True anomaly
149.73841°
Mean anomaly
99.0465°
Eccentric anomaly
125.51692°
Mean motion
1.09755 °/min
Orbital period
328 mins
BSTAR
0.0006332
Loading maneuver chart data...
Computing Atmospheric mass density...
Loading historical data...
Loading historical data...
Loading historical data...
Loading historical data...
Loading historical data...
Loading historical data...
Loading historical data...

Documentation

Showing up to 5 results
|